West Point, VA

7:29 AM EDT on August 24, 2016 (GMT -0400)
West Point

Weather History for KFYJ - January, 2013

Change the Weather History Date:

Thursday, January 31, 2013

  Actual Average (KRIC) Record (KRIC)
Temperature  
Mean Temperature 53 °F 39 °F  
Max Temperature 71 °F 48 °F 72 °F (1916)
Min Temperature 35 °F 29 °F 4 °F (1934)
Degree Days  
Heating Degree Days 12 26  
Month to date heating degree days 836  
Since 1 July heating degree days 2261  
Cooling Degree Days 0 0  
Month to date cooling degree days 0  
Year to date cooling degree days 0  
Growing Degree Days 3 (Base 50)    
Moisture  
Dew Point 34 °F    
Average Humidity 57    
Maximum Humidity 100    
Minimum Humidity 35    
Precipitation  
Precipitation 0.40 in 0.10 in 0.82 in (1957)
Month to date precipitation 3.04  
Year to date precipitation 3.04  
Snow  
Snow 0.00 in 0.20 in 7.00 in (1948)
Month to date snowfall 3.9  
Since 1 July snowfall 6.2  
Snow Depth -    
Sea Level Pressure  
Sea Level Pressure 29.67 in    
Wind  
Wind Speed 20 mph (WSW)    
Max Wind Speed 29 mph    
Max Gust Speed 47 mph    
Visibility 10 miles    
Events      
T = Trace of Precipitation, MM = Missing Value Source: NWS Daily Summary

Daily Weather History Graph

Daily Weather History Graph

Search for Another Location

Airport or City:

Trip Planner

Search our weather history database for the weather conditions in past years. The results will help you decide how hot, cold, wet, or windy it might be!

Date:

Astronomy

Jan. 31, 2013 Rise Set
Actual Time 7:11 AM EST 5:30 PM EST
Civil Twilight 6:43 AM EST 5:57 PM EST
Nautical Twilight 6:12 AM EST 6:29 PM EST
Astronomical Twilight 5:41 AM EST 7:00 PM EST
Moon 10:22 PM EST (1/31) 9:16 AM EST (1/31)
Length of Visible Light 11h 14m
Length of Day
10h 19m
Waning Gibbous, 80% of the Moon is Illuminated
Jan 31
Waning Gibbous
Feb 3
Last Quarter
Feb 10
New
Feb 17
First Quarter
Feb 25
Full

Hourly Weather History & Observations

Time (EST) Temp. Windchill Dew Point Humidity Pressure Visibility Wind Dir Wind Speed Gust Speed Precip Events Conditions
12:15 AM 70.9 °F - 62.2 °F 74% 29.37 in 10.0 mi South 25.3 mph 41.4 mph N/A   Overcast
12:35 AM 70.3 °F - 62.2 °F 75% 29.34 in 10.0 mi South 25.3 mph 35.7 mph N/A   Overcast
12:55 AM 71.1 °F - 62.2 °F 74% 29.30 in 10.0 mi South 25.3 mph 39.1 mph N/A   Overcast
1:15 AM 71.2 °F - 61.9 °F 72% 29.27 in 10.0 mi South 25.3 mph 34.5 mph N/A   Overcast
1:35 AM 70.9 °F - 62.2 °F 74% 29.25 in 10.0 mi South 25.3 mph 42.6 mph N/A   Overcast
1:55 AM 63.7 °F - 61.7 °F 93% 29.33 in 1.0 mi SW 25.3 mph 47.2 mph 0.19 in   Overcast
2:15 AM 61.9 °F - 61.9 °F 100% 29.33 in 5.0 mi SW 18.4 mph 31.1 mph N/A   Overcast
2:35 AM 61.0 °F - 61.0 °F 100% 29.34 in 3.0 mi SW 21.9 mph 29.9 mph 0.10 in   Overcast
2:55 AM 58.3 °F - 58.3 °F 100% 29.36 in 5.0 mi WSW 16.1 mph 27.6 mph 0.16 in   Overcast
3:15 AM 57.6 °F - 57.6 °F 100% 29.35 in 5.0 mi WSW 13.8 mph 24.2 mph 0.03 in   Overcast
3:35 AM 57.2 °F - 57.2 °F 100% 29.34 in 10.0 mi WSW 15.0 mph 19.6 mph 0.04 in   Overcast
3:55 AM 56.8 °F - 56.8 °F 100% 29.34 in 10.0 mi WSW 11.5 mph - 0.04 in   Overcast
4:15 AM 56.7 °F - 56.7 °F 100% 29.36 in 7.0 mi WSW 16.1 mph 23.0 mph 0.01 in   Overcast
4:35 AM 55.9 °F - 55.9 °F 100% 29.37 in 10.0 mi SW 16.1 mph 25.3 mph 0.01 in   Overcast
4:55 AM 55.8 °F - 54.1 °F 94% 29.38 in 10.0 mi SW 19.6 mph 25.3 mph 0.01 in   Mostly Cloudy
5:15 AM 55.4 °F - 51.8 °F 88% 29.40 in 10.0 mi SW 18.4 mph 27.6 mph N/A   Scattered Clouds
5:35 AM 55.4 °F - 50.7 °F 84% 29.42 in 10.0 mi SW 17.3 mph 26.5 mph N/A   Mostly Cloudy
5:55 AM 54.5 °F - 47.5 °F 77% 29.42 in 10.0 mi SW 18.4 mph 29.9 mph N/A   Overcast
6:15 AM 53.6 °F - 46.2 °F 76% 29.45 in 10.0 mi WSW 18.4 mph 25.3 mph N/A   Overcast
6:35 AM 53.4 °F - 45.1 °F 74% 29.47 in 10.0 mi West 26.5 mph 31.1 mph N/A   Overcast
6:55 AM 53.2 °F - 42.3 °F 66% 29.50 in 10.0 mi West 28.8 mph 38.0 mph N/A   Mostly Cloudy
7:15 AM 51.8 °F - 39.9 °F 64% 29.53 in 10.0 mi West 28.8 mph 38.0 mph N/A   Scattered Clouds
7:35 AM 50.2 °F - 36.0 °F 58% 29.56 in 10.0 mi West 24.2 mph 29.9 mph N/A   Clear
7:55 AM 49.6 °F - 35.4 °F 58% 29.57 in 10.0 mi West 16.1 mph 26.5 mph N/A   Clear
8:15 AM 49.6 °F - 35.4 °F 58% 29.59 in 10.0 mi West 17.3 mph 24.2 mph N/A   Clear
8:35 AM 49.8 °F - 34.5 °F 56% 29.60 in 10.0 mi West 17.3 mph 28.8 mph N/A   Clear
8:55 AM 49.1 °F - 31.6 °F 51% 29.63 in 10.0 mi West 25.3 mph 35.7 mph N/A   Clear
9:15 AM 50.0 °F - 32.2 °F 50% 29.65 in 10.0 mi West 18.4 mph 25.3 mph N/A   Scattered Clouds
9:35 AM 49.3 °F - 31.1 °F 50% 29.66 in 10.0 mi West 20.7 mph 27.6 mph N/A   Clear
9:55 AM 49.6 °F - 31.5 °F 50% 29.68 in 10.0 mi West 20.7 mph 26.5 mph N/A   Scattered Clouds
10:15 AM 49.6 °F - 30.6 °F 48% 29.69 in 10.0 mi WSW 21.9 mph 31.1 mph N/A   Scattered Clouds
10:35 AM 49.6 °F - 29.7 °F 46% 29.70 in 10.0 mi West 17.3 mph 27.6 mph N/A   Clear
10:55 AM 50.0 °F - 29.3 °F 45% 29.71 in 10.0 mi WSW 21.9 mph 28.8 mph N/A   Clear
11:15 AM 49.6 °F - 28.8 °F 45% 29.72 in 10.0 mi West 24.2 mph 36.8 mph N/A   Clear
11:35 AM 49.8 °F - 26.4 °F 40% 29.72 in 10.0 mi West 24.2 mph 31.1 mph N/A   Clear
11:55 AM 50.0 °F - 27.5 °F 42% 29.73 in 10.0 mi WSW 19.6 mph 28.8 mph N/A   Clear
12:15 PM 49.5 °F - 23.9 °F 37% 29.73 in 10.0 mi West 23.0 mph 32.2 mph N/A   Clear
12:35 PM 49.8 °F - 23.4 °F 36% 29.73 in 10.0 mi West 23.0 mph 29.9 mph N/A   Clear
12:55 PM 50.0 °F - 23.7 °F 36% 29.72 in 7.0 mi West 21.9 mph 34.5 mph N/A   Clear
1:15 PM 50.0 °F - 24.8 °F 37% 29.72 in 10.0 mi West 21.9 mph 32.2 mph N/A   Clear
1:35 PM 50.0 °F - 23.7 °F 36% 29.73 in 10.0 mi West 18.4 mph 28.8 mph N/A   Clear
1:55 PM 49.5 °F - 25.3 °F 39% 29.73 in 10.0 mi West 21.9 mph 27.6 mph N/A   Scattered Clouds
2:15 PM 50.2 °F - 25.5 °F 38% 29.74 in 10.0 mi WSW 17.3 mph 25.3 mph N/A   Mostly Cloudy
2:35 PM 50.4 °F - 25.7 °F 38% 29.75 in 10.0 mi West 16.1 mph 26.5 mph N/A   Mostly Cloudy
2:55 PM 50.5 °F - 23.5 °F 35% 29.75 in 10.0 mi WSW 27.6 mph 34.5 mph N/A   Mostly Cloudy
3:15 PM 50.0 °F - 23.2 °F 35% 29.76 in 10.0 mi WSW 21.9 mph 32.2 mph N/A   Mostly Cloudy
3:35 PM 48.0 °F - 21.2 °F 35% 29.78 in 10.0 mi West 18.4 mph 31.1 mph N/A   Scattered Clouds
3:55 PM 47.8 °F - 22.6 °F 37% 29.79 in 10.0 mi West 18.4 mph 35.7 mph N/A   Mostly Cloudy
4:15 PM 47.7 °F - 22.8 °F 38% 29.81 in 10.0 mi West 21.9 mph 32.2 mph N/A   Overcast
4:35 PM 46.6 °F - 23.0 °F 39% 29.81 in 10.0 mi West 27.6 mph 32.2 mph N/A   Overcast
4:55 PM 46.4 °F 39.5 °F 22.3 °F 39% 29.83 in 10.0 mi West 17.3 mph 28.8 mph N/A   Overcast
5:15 PM 45.9 °F 38.5 °F 21.7 °F 38% 29.84 in 10.0 mi West 18.4 mph 28.8 mph N/A   Mostly Cloudy
5:35 PM 44.6 °F 35.9 °F 20.5 °F 38% 29.86 in 10.0 mi WSW 23.0 mph 28.8 mph N/A   Scattered Clouds
5:55 PM 43.7 °F 35.4 °F 20.1 °F 39% 29.87 in 10.0 mi West 19.6 mph 27.6 mph N/A   Scattered Clouds
6:15 PM 42.8 °F 35.4 °F 18.9 °F 38% 29.89 in 10.0 mi West 15.0 mph 26.5 mph N/A   Clear
6:35 PM 42.1 °F 34.2 °F 18.7 °F 39% 29.90 in 10.0 mi West 16.1 mph 26.5 mph N/A   Clear
6:55 PM 41.7 °F 32.3 °F 19.4 °F 41% 29.92 in 10.0 mi West 21.9 mph 27.6 mph N/A   Clear
7:15 PM 41.2 °F 33.4 °F 20.1 °F 43% 29.93 in 10.0 mi West 15.0 mph 25.3 mph N/A   Clear
7:35 PM 40.6 °F 32.7 °F 20.1 °F 44% 29.93 in 10.0 mi West 15.0 mph 19.6 mph N/A   Clear
8:15 PM 39.9 °F 31.8 °F 18.3 °F 42% 29.95 in 10.0 mi WSW 15.0 mph 24.2 mph N/A   Clear
8:35 PM 40.1 °F 32.4 °F 18.3 °F 42% 29.95 in 10.0 mi West 13.8 mph 21.9 mph N/A   Clear
8:55 PM 38.8 °F 32.6 °F 19.4 °F 46% 29.95 in 10.0 mi West 9.2 mph - N/A   Clear
9:15 PM 37.8 °F 31.8 °F 20.3 °F 49% 29.95 in 10.0 mi WSW 8.1 mph - N/A   Clear
9:35 PM 36.9 °F 31.4 °F 20.5 °F 52% 29.96 in 10.0 mi WSW 6.9 mph - N/A   Clear
9:55 PM 37.4 °F 31.4 °F 19.9 °F 49% 29.95 in 10.0 mi SW 8.1 mph - N/A   Clear
10:15 PM 36.7 °F 30.5 °F 20.7 °F 52% 29.97 in 10.0 mi SW 8.1 mph - N/A   Clear
10:35 PM 36.7 °F 29.9 °F 20.8 °F 53% 29.97 in 10.0 mi SW 9.2 mph - N/A   Clear
10:55 PM 36.5 °F 30.3 °F 21.9 °F 56% 29.98 in 10.0 mi WSW 8.1 mph - N/A   Clear
11:15 PM 36.1 °F 29.3 °F 22.1 °F 57% 29.98 in 10.0 mi WSW 9.2 mph - N/A   Clear
11:35 PM 35.8 °F 28.3 °F 22.1 °F 58% 29.99 in 10.0 mi WSW 10.4 mph - N/A   Clear
11:55 PM 35.6 °F 28.6 °F 22.1 °F 58% 29.99 in 10.0 mi WSW 9.2 mph - N/A   Clear